EW5295 Weather Reports


time (UTC)temp
C
wind
direction
speed
KPH
gust
KPH
rain 1hr
cm
rain 24hr
cm
rain mn
cm
humidity
%
barometer
mb
20260831094515 12 158 0.0 0.0 0.00 0.00 0.00 86 1012.3
20260831093032 12 158 0.0 0.0 0.00 0.00 0.00 87 1012.4
20260831091511 12 158 0.0 0.0 0.00 0.00 0.00 87 1012.6
20260831090010 12 158 0.0 0.0 0.00 0.00 0.00 86 1012.6
20260831084507 12 158 0.0 0.0 0.00 0.00 0.00 86 1012.8
20260831083006 13 158 0.0 0.0 0.00 0.00 0.00 86 1012.9
20260831081504 13 158 0.0 0.0 0.00 0.00 0.00 86 1013.1
20260831080003 13 158 0.0 0.0 0.00 0.00 0.00 86 1013.4
20260831074549 13 158 0.0 0.0 0.00 0.00 0.00 85 1013.3
20260831073047 13 158 0.0 0.0 0.00 0.00 0.00 84 1013.3
20260831071604 13 158 0.0 0.0 0.00 0.00 0.00 83 1013.6
20260831070041 14 158 0.0 0.0 0.00 0.00 0.00 82 1013.7
20260831064539 14 155 0.0 0.0 0.00 0.00 0.00 81 1013.8
20260831063039 14 155 0.0 0.0 0.00 0.00 0.00 81 1014.0
20260831061534 14 155 0.0 3.2 0.00 0.00 0.00 80 1014.1
20260831060038 15 134 0.0 0.0 0.00 0.00 0.00 79 1014.2
20260831054519 15 134 0.0 1.6 0.00 0.00 0.00 78 1014.3
20260831053039 15 135 0.0 1.6 0.00 0.00 0.00 77 1014.5
20260831051517 15 137 0.0 1.6 0.00 0.00 0.00 77 1014.8
20260831050014 15 94 0.0 1.6 0.00 0.00 0.00 76 1014.8
20260831044513 16 125 0.0 1.6 0.00 0.00 0.00 75 1015.0
20260831043010 16 122 0.0 4.8 0.00 0.00 0.00 74 1015.1
20260831041511 16 144 0.0 1.6 0.00 0.00 0.00 74 1015.0
20260831040008 16 159 0.0 0.0 0.00 0.00 0.00 72 1015.1
20260831034554 16 159 0.0 0.0 0.00 0.00 0.00 70 1015.1
20260831033054 17 158 0.0 0.0 0.00 0.00 0.00 68 1015.1
20260831031547 17 159 0.0 1.6 0.00 0.00 0.00 67 1015.1
20260831030046 17 130 0.0 1.6 0.00 0.00 0.00 65 1015.2
20260831024542 18 189 0.0 1.6 0.00 0.00 0.00 63 1015.2
20260831023041 18 153 0.0 4.8 0.00 0.00 0.00 61 1015.3
20260831021540 18 152 0.0 3.2 0.00 0.00 0.00 59 1015.3
20260831020056 19 128 0.0 4.8 0.00 0.00 0.00 58 1015.3
20260831014515 20 155 0.0 3.2 0.00 0.00 0.00 57 1015.4
20260831013012 20 139 0.0 3.2 0.00 0.00 0.00 56 1015.5
20260831011604 20 175 0.0 4.8 0.00 0.00 0.00 57 1015.6
20260831010052 20 160 0.0 3.2 0.00 0.00 0.00 56 1015.8
20260831004547 21 153 0.0 6.4 0.00 0.00 0.00 56 1015.9
20260831003039 21 188 0.0 8.0 0.00 0.00 0.00 55 1016.1
20260831001538 21 195 0.0 4.8 0.00 0.00 0.00 55 1016.1
20260831000039 21 143 0.0 6.4 0.00 0.00 0.00 55 1016.2
20260830234543 21 170 0.0 8.0 0.00 0.00 0.00 54 1016.3
20260830233036 21 198 0.0 6.4 0.00 0.00 0.00 54 1016.6
20260830231536 21 181 0.0 6.4 0.00 0.00 0.00 54 1016.7
20260830230031 21 169 0.0 6.4 0.00 0.00 0.00 55 1016.9
20260830224509 21 122 0.0 3.2 0.00 0.00 0.00 54 1017.1
20260830223007 21 142 0.0 3.2 0.00 0.00 0.00 55 1017.4
20260830221604 21 185 0.0 8.0 0.00 0.00 0.00 56 1017.5
20260830220104 20 144 0.0 4.8 0.00 0.00 0.00 56 1017.8
20260830214549 20 160 0.0 6.4 0.00 0.00 0.00 56 1018.0
20260830213051 20 151 0.0 3.2 0.00 0.00 0.00 57 1018.1
20260830211554 20 179 0.0 4.8 0.00 0.00 0.00 57 1018.4
20260830210055 19 141 0.0 4.8 0.00 0.00 0.00 58 1018.5
20260830204551 19 300 0.0 4.8 0.00 0.00 0.00 59 1018.6
20260830203051 19 298 0.0 3.2 0.00 0.00 0.00 60 1018.8
20260830201542 18 172 0.0 4.8 0.00 0.00 0.00 59 1019.0
20260830200035 18 175 0.0 0.0 0.00 0.00 0.00 59 1019.2
20260830194531 18 302 0.0 3.2 0.00 0.00 0.00 62 1019.1
20260830193029 18 302 0.0 4.8 0.00 0.00 0.00 61 1019.3
20260830191531 17 168 0.0 4.8 0.00 0.00 0.00 63 1019.5
20260830190032 17 146 0.0 4.8 0.00 0.00 0.00 63 1019.7
20260830184528 17 158 0.0 4.8 0.00 0.00 0.00 64 1019.7
20260830183029 16 309 0.0 6.4 0.00 0.00 0.00 65 1019.7
20260830181528 16 145 0.0 1.6 0.00 0.00 0.00 68 1019.8
20260830180017 16 164 0.0 1.6 0.00 0.00 0.00 68 1019.8
20260830174513 16 185 0.0 3.2 0.00 0.00 0.00 68 1019.7
20260830173051 16 140 0.0 4.8 0.00 0.00 0.00 69 1019.7
20260830171550 16 181 0.0 0.0 0.00 0.00 0.00 72 1019.9
20260830170039 15 168 0.0 0.0 0.00 0.00 0.00 75 1019.8
20260830164542 15 165 0.0 0.0 0.00 0.00 0.00 76 1019.8
20260830163038 14 177 0.0 0.0 0.00 0.00 0.00 81 1019.8
20260830161556 13 177 0.0 0.0 0.00 0.00 0.00 84 1020.0
20260830160037 13 138 0.0 0.0 0.00 0.00 0.00 86 1020.1
20260830154539 12 137 0.0 0.0 0.00 0.00 0.00 88 1020.0
20260830153050 11 137 0.0 0.0 0.00 0.00 0.00 92 1020.0
20260830151538 11 137 0.0 0.0 0.00 0.00 0.00 93 1020.1
20260830150017 10 136 0.0 0.0 0.00 0.00 0.00 93 1020.2
20260830144515 10 135 0.0 1.6 0.00 0.00 0.00 94 1020.2
20260830143109 -17 0.0 0.0 0.00 0.00 0.00 1020.0
20260830141557 -17 0.0 0.0 0.00 0.00 0.00 1019.9
20260830140050 -17 0.0 0.0 0.00 0.00 0.00 1019.9
20260830134549 -17 0.0 0.0 0.00 0.00 0.00 1019.9
20260830133042 -17 0.0 0.0 0.00 0.00 0.00 1019.9
20260830131541 -17 0.0 0.0 0.00 0.00 0.00 1019.9
20260830130040 -17 0.0 0.0 0.00 0.00 0.00 1019.8
20260830124529 -17 0.0 0.0 0.00 0.00 0.00 1019.7
20260830123015 10 166 0.0 0.0 0.00 0.00 0.00 91 1019.7
20260830121515 10 165 0.0 0.0 0.00 0.00 0.00 91 1019.5
20260830120015 10 165 0.0 0.0 0.00 0.00 0.00 91 1019.6
20260830114523 10 165 0.0 0.0 0.00 0.00 0.00 91 1019.5
20260830113011 10 166 0.0 0.0 0.00 0.00 0.00 91 1019.5
20260830111515 10 166 0.0 0.0 0.00 0.00 0.00 92 1019.5
20260830110010 10 166 0.0 0.0 0.00 0.00 0.00 91 1019.5
20260830104508 10 166 0.0 0.0 0.00 0.00 0.00 90 1019.5
20260830103057 10 166 0.0 0.0 0.00 0.00 0.00 90 1019.5
20260830101606 10 166 0.0 0.0 0.00 0.00 0.00 90 1019.4
20260830100054 10 166 0.0 0.0 0.00 0.00 0.00 90 1019.5